Regional Weather Roundup
Issued by NWS Burlington, VT

Home | Current Version | Previous Version | Text Only | Print | Product List | Glossary On
Versions: 1 2 3 4 5 6 7 8 9 10 11 12 13 14 15 16 17 18 19 20 21 22 23 24 25 26 27 28 29 30 31 32 33 34 35 36 37 38 39 40 41 42 43 44 45 46 47 48 49 50
000
ASUS41 KBTV 212030
RWRBTV
VERMONT REGIONAL WEATHER ROUNDUP
NATIONAL WEATHER SERVICE BURLINGTON VT
400 PM EDT SUN SEP 21 2014

NOTE: "FAIR" INDICATES FEW OR NO CLOUDS BELOW 12,000 FEET WITH NO
SIGNIFICANT WEATHER AND/OR OBSTRUCTIONS TO VISIBILITY.

* THESE REPORTS ARE NOT UNDER NWS QUALITY CONTROL AND/OR DO NOT
  REPORT WEATHER SUCH AS PRECIPITATION AND FOG.

VTZ001>019-212100-
_____VERMONT_____


CITY           SKY/WX    TMP DP  RH WIND       PRES   REMARKS
BURLINGTON     CLOUDY    79  57  46 S15G26    29.59F
MONTPELIER     PTCLDY    76  61  59 S14       29.69F
MORRISVILLE    MOCLDY    76  60  57 S7G17     29.64F
ST. JOHNSBURY*   N/A     76  60  57 MISG      29.65F
MIDDLEBURY*    FAIR      81  53  38 S10G20    29.61F
RUTLAND*       PTCLDY    79  61  53 S14G21    29.63F
SPRINGFIELD    MOCLDY    75  65  70 S12G23    29.69F
HIGHGATE*      MOCLDY    76  59  55 S9        29.57F
NEWPORT*       FAIR     N/A N/A N/A S12G21    29.63F
BENNINGTON     MOCLDY    78  63  59 S8        29.67F
SUTTON*          N/A     75 N/A N/A MISG        N/A
ISLAND POND*     N/A     75 N/A N/A S10         N/A
GALLUP MILLS*    N/A     75 N/A N/A MISG        N/A
UNION VILLAGE*   N/A     79 N/A N/A MISG        N/A
MT. MANSFIELD*   N/A     63 N/A N/A S8G22       N/A

_____LAKE CHAMPLAIN_____


CITY           SKY/WX    TMP DP  RH WIND       PRES   REMARKS
BURTON ISLAND*   N/A    N/A N/A N/A SE17        N/A
COLCHESTER RF*   N/A     70  59  68 S21         N/A
DIAMOND ISL*     N/A     75  59  57 S15         N/A

$$

NYZ007-026>031-035-052-083-212100-
_____NORTHERN NEW YORK_____


CITY           SKY/WX    TMP DP  RH WIND       PRES   REMARKS
PLATTSBURGH    MOCLDY    76  61  59 S9        29.57F
SARANAC LAKE   CLOUDY    71  57  61 S10       29.60F
MASSENA        MOCLDY    75  65  70 S17G23    29.53F
OGDENSBURG*    MOCLDY    73  66  78 SW9G16    29.51F
POTSDAM*       CLOUDY    73  66  78 SW9       29.53F
PARISHVILLE*     N/A     68 N/A N/A S15         N/A
WATERTOWN      MOCLDY    75  63  66 S10G18    29.52F
FT DRUM        TSTM      68  64  88 S18G26    29.53F FOG
ALBANY         MOCLDY    79  64  60 S13G25    29.63F
GLENS FALLS    PTCLDY    81  57  43 S10       29.62F

$$
NHZ002-005-011-212100-
_____NEW HAMPSHIRE_____


CITY           SKY/WX    TMP DP  RH WIND       PRES   REMARKS
LEBANON        MOCLDY    77  63  61 S21G30    29.68F
KEENE          CLOUDY    75  61  60 SW3       29.70F
MT WASHINGTON  FOG       52  52 100 SW35G52     N/A  VSB 1/16
PLYMOUTH       MOCLDY    75  69  83 E5        29.70F
WHITEFIELD     MOCLDY    77  60  55 VRB7G20   29.70F

$$

_____REGIONAL QUEBEC LOCATIONS_____


CITY           SKY/WX    TMP DP  RH WIND       PRES   REMARKS
MONTREAL       CLOUDY    68  64  88 S9        29.54F
QUEBEC CITY    CLOUDY    68  63  83 N8        29.59F
SHERBROOKE     PTCLDY    75  57  53 S8G25     29.62F

_____REGIONAL ONTARIO LOCATIONS_____


CITY           SKY/WX    TMP DP  RH WIND       PRES   REMARKS
OTTAWA         PTCLDY    72  68  88 S9G23     29.48F

______KEY______
VSB  - VISIBILITY IN MILES
WCI  - WIND CHILL INDEX
HX   - HEAT INDEX
$$



USA.gov is the U.S. government's official web portal to all federal, state and local government web resources and services.